Volver al catálogo

STARLINK-4334

ActivoComunicacionesSSO
NORAD 53665·PAYLOAD·🇺🇸 United States

Lanzado Aug 31, 2022 desde Vandenberg Space Force Base

Loading…

Próximos Pases (próximas 24 horas)

TLE

ActualizadoSource: CelesTrak SupGP

Época: Sep 15, 2026, 01:22 UTC

1 53665C 22105T   26258.05743056  .00782950  00000+0  18828-1 0  2584
2 53665  97.5169 146.4479 0001644  96.3253 270.4667 15.40958688    19

Sigue STARLINK-4334 en tiempo real con AllMySat

Download on the App Store